Location: Ca�n Batista
(41.4099°N, 1.7752°E)
Time: 13:46:33
(UTC+00:00)

SL-08 RB Rocket - Pass Details

Date: 03 March 2021
Orbit: 646 x 684 km, 97.8° (Epoch: 21 April)

Event Time Altitude Azimuth Distance (km) Brightness Sun altitude
Rises 18:48:54 0° 156° (SSE) 2,959 6.8 -12.6°
Reaches altitude 10° 18:51:06 10° 153° (SSE) 2,057 5.9 -13.0°
Maximum altitude 18:55:32 60° 74° (ENE) 756 3.7 -13.8°
Drops below altitude 10° 19:00:01 10° 355° (N) 2,094 6.4 -14.7°
Sets 19:02:17 0° 352° (N) 3,018 7.3 -15.1°
